Погода в Чудово

Россия / Новгородская область     59°07′16″N   31°40′13″E
темп.,
°C
ветер,
м/с
пор.,
м/с
влажн.,
%
обл.,
%
осадки,
мм/ч
давл.,
гПа
погр.,
м
16 апреля, пт
пт1600:00+3св4127999 0.0 1027508
03:00+2св41185100 0.0 1027410
06:00+1св5138395 0.0 1027394
09:00+5всв5116458 0.0 1027526
12:00+10всв694889 0.0 1027886
15:00+12всв5844100 0.0 10271105
18:00+12всв5946100 0.0 1026978
21:00+8св41259100 0.0 1027413
17 апреля, сб
сб1700:00+5св4126847 0.0 1028427
03:00+4св4117720 0.0 1028362
06:00+3св411815 0.0 1028334
09:00+7всв59615 0.0 1029524
12:00+12всв574426 0.0 10281019
15:00+15всв57375 0.0 10281225
18:00+14всв48390 0.0 10271126
21:00+7св311640 0.0 1028249
18 апреля, вс
вс1800:00+6св311720 0.0 1029294
03:00+4св310825 0.0 1029241
06:00+3св310885 0.0 1029246
09:00+8всв48600 0.0 1029514
12:00+12всв57425 0.0 10281558
15:00+14в57365 0.0 10272033
18:00+13всв5745100 0.0 10271389
21:00+8всв4116037 0.0 1028358
19 апреля, пн
пн1900:00+6всв311775 0.0 1029320
03:00+4всв3108512 0.0 1029275
06:00+3всв399198 0.0 1029260
09:00+8в477183 0.0 1029593
12:00+12в465239 0.0 10281450
15:00+13вюв4646100 0.0 10271976
18:00+10вюв485799 0.0 10261098
21:00+9в396175 0.0 1026581
20 апреля, вт
вт2000:00+5всв397991 0.0 1025247
03:00+5в31176100 0.0 1024383
06:00+5в41174100 0.0 1022474
09:00+6в41264100 0.0 1021666
12:00+11в6944100 0.0 10181239
15:00+12в61045100 0.0 10151346
18:00+10в61351100 0.0 10121176
21:00+8всв61566100 0.6 10091271